CW1020 Weather Reports


time (UTC)temp
F
wind
direction
speed
knots
gust
knots
rain 1hr
in
rain 24hr
in
rain mn
in
humidity
%
barometer
mb
20260509013003 74 280 7.0 9.6 0.00 0.00 0.00 39 1017.7
20260509012503 74 292 7.8 9.6 0.00 0.00 0.00 39 1017.6
20260509012004 74 289 7.8 9.6 0.00 0.00 0.00 39 1017.6
20260509011505 74 277 7.8 14.8 0.00 0.00 0.00 39 1017.7
20260509011004 74 294 8.7 11.3 0.00 0.00 0.00 40 1017.7
20260509010504 75 282 7.8 13.0 0.00 0.00 0.00 39 1017.7
20260509010003 75 270 6.1 15.6 0.00 0.00 0.00 39 1017.7
20260509005503 75 284 7.0 9.6 0.00 0.00 0.00 40 1017.9
20260509003503 75 314 8.7 13.9 0.00 0.00 0.00 41 1017.9
20260509003003 75 315 9.6 15.6 0.00 0.00 0.00 41 1017.9
20260509002503 74 310 10.4 11.3 0.00 0.00 0.00 41 1017.9
20260509002003 74 303 10.4 16.5 0.00 0.00 0.00 40 1017.8
20260509001003 75 318 9.6 14.8 0.00 0.00 0.00 41 1017.9
20260509000503 75 323 9.6 16.5 0.00 0.00 0.00 42 1017.9
20260509000004 74 310 10.4 12.2 0.00 0.00 0.00 42 1017.9
20260508235503 74 317 10.4 13.0 0.00 0.00 0.00 42 1017.9
20260508235003 75 310 10.4 15.6 0.00 0.00 0.00 41 1017.9
20260508234504 74 315 10.4 14.8 0.00 0.00 0.00 42 1017.9
20260508234003 74 321 9.6 17.4 0.00 0.00 0.00 41 1018.1
20260508233503 74 310 10.4 16.5 0.00 0.00 0.00 43 1018.0
20260508232503 74 315 12.2 16.5 0.00 0.00 0.00 42 1018.1
20260508232004 74 312 11.3 17.4 0.00 0.00 0.00 42 1018.1
20260508231503 74 310 10.4 16.5 0.00 0.00 0.00 41 1018.3
20260508231003 74 314 10.4 14.8 0.00 0.00 0.00 42 1018.3
20260508230504 74 320 10.4 19.1 0.00 0.00 0.00 42 1018.4
20260508230003 74 297 11.3 13.0 0.00 0.00 0.00 42 1018.4
20260508225504 74 299 12.2 15.6 0.00 0.00 0.00 43 1018.3
20260508224503 74 319 10.4 17.4 0.00 0.00 0.00 43 1018.4
20260508224003 74 318 10.4 16.5 0.00 0.00 0.00 45 1018.4
20260508223504 74 311 10.4 15.6 0.00 0.00 0.00 45 1018.4
20260508223003 73 310 10.4 13.9 0.00 0.00 0.00 46 1018.5
20260508222504 74 320 9.6 15.6 0.00 0.00 0.00 46 1018.4
20260508222003 74 318 9.6 16.5 0.00 0.00 0.00 45 1018.5
20260508221504 74 309 8.7 13.0 0.00 0.00 0.00 46 1018.7
20260508221004 74 311 7.0 16.5 0.00 0.00 0.00 46 1018.7
20260508220503 73 324 8.7 9.6 0.00 0.00 0.00 49 1019.0
20260508220004 73 312 10.4 14.8 0.00 0.00 0.00 48 1018.9
20260508215503 73 315 11.3 13.9 0.00 0.00 0.00 48 1018.8
20260508214504 72 317 11.3 15.6 0.00 0.00 0.00 50 1019.0
20260508214003 72 307 10.4 16.5 0.00 0.00 0.00 51 1019.1
20260508213504 72 317 10.4 16.5 0.00 0.00 0.00 52 1019.0
20260508213003 72 307 10.4 15.6 0.00 0.00 0.00 51 1019.2
20260508212502 72 310 10.4 13.9 0.00 0.00 0.00 52 1019.2
20260508212002 73 308 9.6 13.9 0.00 0.00 0.00 52 1019.2
20260508211502 72 303 9.6 15.6 0.00 0.00 0.00 52 1019.2
20260508211003 72 304 10.4 14.8 0.00 0.00 0.00 53 1019.3
20260508210502 72 318 10.4 13.9 0.00 0.00 0.00 52 1019.3
20260508210002 72 302 11.3 15.6 0.00 0.00 0.00 52 1019.4
20260508205002 72 319 12.2 15.6 0.00 0.00 0.00 53 1019.4
20260508204502 72 319 11.3 18.2 0.00 0.00 0.00 53 1019.6
20260508204002 72 307 10.4 16.5 0.00 0.00 0.00 53 1019.5
20260508203504 72 317 10.4 14.8 0.00 0.00 0.00 54 1019.5
20260508203002 71 315 10.4 15.6 0.00 0.00 0.00 54 1019.6
20260508202502 72 314 11.3 17.4 0.00 0.00 0.00 54 1019.5
20260508201502 72 308 9.6 14.8 0.00 0.00 0.00 54 1019.5
20260508201002 72 307 10.4 15.6 0.00 0.00 0.00 54 1019.6
20260508200502 72 314 10.4 13.9 0.00 0.00 0.00 54 1019.5
20260508200002 72 318 9.6 17.4 0.00 0.00 0.00 54 1019.6
20260508195502 71 302 10.4 13.0 0.00 0.00 0.00 53 1019.7
20260508195002 71 315 11.3 15.6 0.00 0.00 0.00 54 1019.7
20260508194503 71 321 11.3 16.5 0.00 0.00 0.00 52 1019.6
20260508194002 72 313 10.4 17.4 0.00 0.00 0.00 51 1019.7
20260508193502 72 313 10.4 17.4 0.00 0.00 0.00 49 1019.5
20260508193003 72 307 11.3 14.8 0.00 0.00 0.00 50 1019.7
20260508192502 72 318 10.4 14.8 0.00 0.00 0.00 49 1019.6
20260508192003 72 320 9.6 14.8 0.00 0.00 0.00 51 1019.8
20260508191002 71 312 9.6 13.9 0.00 0.00 0.00 52 1019.8
20260508190502 71 317 10.4 13.9 0.00 0.00 0.00 53 1019.9
20260508190003 71 318 10.4 17.4 0.00 0.00 0.00 53 1020.0
20260508185504 71 320 9.6 14.8 0.00 0.00 0.00 52 1019.9
20260508185002 71 314 9.6 16.5 0.00 0.00 0.00 53 1020.0
20260508184502 71 312 8.7 14.8 0.00 0.00 0.00 54 1020.2
20260508184002 71 316 9.6 14.8 0.00 0.00 0.00 54 1020.2
20260508183503 71 313 9.6 11.3 0.00 0.00 0.00 55 1020.2
20260508183002 71 316 9.6 13.9 0.00 0.00 0.00 55 1020.3
20260508182503 71 318 8.7 12.2 0.00 0.00 0.00 55 1020.3
20260508182003 71 319 6.1 13.0 0.00 0.00 0.00 55 1020.4
20260508181504 70 302 5.2 11.3 0.00 0.00 0.00 57 1020.2
20260508181003 70 320 5.2 10.4 0.00 0.00 0.00 55 1020.2
20260508180502 69 322 6.1 10.4 0.00 0.00 0.00 60 1020.2
20260508180002 69 324 7.0 10.4 0.00 0.00 0.00 62 1020.2
20260508174502 68 316 6.1 11.3 0.00 0.00 0.00 64 1020.3
20260508174002 68 322 6.1 11.3 0.00 0.00 0.00 65 1020.5
20260508173503 68 327 5.2 11.3 0.00 0.00 0.00 64 1020.4
20260508173003 68 332 6.1 7.8 0.00 0.00 0.00 65 1020.4
20260508172502 68 323 6.1 10.4 0.00 0.00 0.00 64 1020.4
20260508171502 67 324 6.1 10.4 0.00 0.00 0.00 64 1020.3
20260508171003 67 324 4.3 9.6 0.00 0.00 0.00 63 1020.4
20260508170502 67 334 4.3 7.0 0.00 0.00 0.00 62 1020.4
20260508170002 67 326 5.2 8.7 0.00 0.00 0.00 61 1020.5
20260508165502 67 327 5.2 8.7 0.00 0.00 0.00 61 1020.5
20260508165003 67 324 4.3 8.7 0.00 0.00 0.00 62 1020.5
20260508164502 67 322 4.3 9.6 0.00 0.00 0.00 61 1020.6
20260508164002 67 324 5.2 7.0 0.00 0.00 0.00 60 1020.5
20260508163503 67 319 4.3 10.4 0.00 0.00 0.00 60 1020.5
20260508163004 67 326 4.3 8.7 0.00 0.00 0.00 60 1020.5
20260508162502 66 323 3.5 7.8 0.00 0.00 0.00 61 1020.6
20260508162003 66 321 3.5 8.7 0.00 0.00 0.00 63 1020.6
20260508161502 66 323 3.5 4.3 0.00 0.00 0.00 63 1020.7
20260508161003 66 326 2.6 7.8 0.00 0.00 0.00 64 1020.7
20260508160503 65 350 2.6 4.3 0.00 0.00 0.00 64 1020.7
20260508160003 65 328 2.6 5.2 0.00 0.00 0.00 66 1020.8
20260508155502 65 331 0.9 5.2 0.00 0.00 0.00 67 1020.8
20260508155003 64 322 0.9 4.3 0.00 0.00 0.00 68 1020.8
20260508154503 64 318 0.9 3.5 0.00 0.00 0.00 69 1020.8
20260508154002 64 326 1.7 1.7 0.00 0.00 0.00 71 1020.8
20260508153502 63 322 1.7 3.5 0.00 0.00 0.00 71 1020.8
20260508152503 63 330 2.6 3.5 0.00 0.00 0.00 73 1020.9
20260508152002 62 330 1.7 4.3 0.00 0.00 0.00 74 1020.9
20260508151504 62 336 1.7 2.6 0.00 0.00 0.00 76 1020.9
20260508151002 61 341 0.9 2.6 0.00 0.00 0.00 78 1021.0
20260508150004 60 5 0.9 1.7 0.00 0.00 0.00 80 1021.1
20260508145502 59 6 0.9 2.6 0.00 0.00 0.00 81 1020.9
20260508145003 59 29 0.0 1.7 0.00 0.00 0.00 82 1020.9
20260508144502 58 32 0.9 1.7 0.00 0.00 0.00 82 1020.9
20260508144003 58 33 0.9 2.6 0.00 0.00 0.00 83 1020.8
20260508143503 57 35 0.9 1.7 0.00 0.00 0.00 84 1020.7
20260508143003 56 26 0.9 2.6 0.00 0.00 0.00 84 1020.7
20260508142002 56 279 0.0 0.9 0.00 0.00 0.00 85 1020.7
20260508141502 56 277 0.0 1.7 0.00 0.00 0.00 85 1020.7
20260508141003 56 0 0.0 0.0 0.00 0.00 0.00 85 1020.7
20260508140503 55 276 0.0 1.7 0.00 0.00 0.00 85 1020.6
20260508140004 55 0 0.0 0.0 0.00 0.00 0.00 85 1020.5
20260508133503 55 0 0.0 0.0 0.00 0.00 0.00 83 1020.4
20260508132503 55 0 0.0 0.0 0.00 0.00 0.00 82 1020.4
20260508132003 55 0 0.0 0.0 0.00 0.00 0.00 82 1020.4
20260508131502 55 0 0.0 0.0 0.00 0.00 0.00 82 1020.4
20260508130504 55 0 0.0 0.0 0.00 0.00 0.00 81 1020.4
20260508130002 55 0 0.0 0.0 0.00 0.00 0.00 82 1020.4
20260508125503 55 0 0.0 0.0 0.00 0.00 0.00 81 1020.2
20260508125002 55 276 0.0 0.9 0.00 0.00 0.00 81 1020.2
20260508124503 56 278 0.0 0.9 0.00 0.00 0.00 80 1020.2
20260508124002 56 279 0.0 0.9 0.00 0.00 0.00 80 1020.1
20260508123502 56 279 0.0 0.9 0.00 0.00 0.00 79 1020.0
20260508123003 56 0 0.0 0.0 0.00 0.00 0.00 79 1019.9
20260508122502 56 0 0.0 0.0 0.00 0.00 0.00 80 1019.9
20260508122003 56 279 0.0 0.9 0.00 0.00 0.00 80 1019.9
20260508121503 56 279 0.0 0.9 0.00 0.00 0.00 80 1020.0
20260508120503 56 0 0.0 0.0 0.00 0.00 0.00 80 1020.0
20260508120003 56 0 0.0 0.0 0.00 0.00 0.00 79 1020.0
20260508115503 56 0 0.0 0.0 0.00 0.00 0.00 79 1020.0
20260508115002 56 279 0.0 1.7 0.00 0.00 0.00 79 1019.9
20260508114503 56 280 0.0 0.9 0.00 0.00 0.00 78 1020.0
20260508113502 56 0 0.0 0.0 0.00 0.00 0.00 79 1019.8
20260508113003 56 276 0.0 0.9 0.00 0.00 0.00 79 1019.8
20260508112502 56 271 0.0 0.9 0.00 0.00 0.00 80 1019.9
20260508112003 56 0 0.0 0.0 0.00 0.00 0.00 80 1019.9
20260508111002 55 270 0.0 0.9 0.00 0.00 0.00 80 1019.9
20260508110503 55 270 0.0 0.9 0.00 0.00 0.00 79 1019.9
20260508110004 55 0 0.0 0.0 0.00 0.00 0.00 79 1019.9
20260508105503 55 270 0.0 0.9 0.00 0.00 0.00 79 1019.9
20260508105002 55 267 0.0 0.9 0.00 0.00 0.00 79 1019.9
20260508104503 55 0 0.0 0.0 0.00 0.00 0.00 79 1019.9
20260508104003 55 267 0.9 0.9 0.00 0.00 0.00 78 1019.9
20260508103003 55 260 0.9 2.6 0.00 0.00 0.00 78 1020.1
20260508102503 55 268 0.9 1.7 0.00 0.00 0.00 79 1020.1
20260508102003 55 276 0.0 2.6 0.00 0.00 0.00 78 1020.1
20260508101503 55 281 0.0 0.9 0.00 0.00 0.00 78 1020.1
20260508101002 55 0 0.0 0.0 0.00 0.00 0.00 78 1020.2
20260508100503 55 0 0.0 0.0 0.00 0.00 0.00 77 1020.1
20260508100003 55 282 0.0 0.9 0.00 0.00 0.00 77 1020.1
20260508095503 56 282 0.0 0.9 0.00 0.00 0.00 76 1019.8
20260508095003 56 0 0.0 0.0 0.00 0.00 0.00 75 1019.9
20260508093503 56 0 0.0 0.0 0.00 0.00 0.00 77 1020.0
20260508093003 56 0 0.0 0.0 0.00 0.00 0.00 77 1020.0
20260508092502 56 282 0.0 0.9 0.00 0.00 0.00 76 1020.0
20260508092003 56 283 0.0 0.9 0.00 0.00 0.00 76 1020.0
20260508091503 56 0 0.0 0.0 0.00 0.00 0.00 77 1020.0
20260508091002 56 0 0.0 0.0 0.00 0.00 0.00 76 1020.0
20260508090503 56 283 0.0 0.9 0.00 0.00 0.00 76 1020.1
20260508090003 56 283 0.0 0.9 0.00 0.00 0.00 76 1020.1
20260508084503 56 279 0.0 0.9 0.00 0.00 0.00 74 1020.1
20260508084003 56 0 0.0 0.0 0.00 0.00 0.00 75 1020.1
20260508083503 56 0 0.0 0.0 0.00 0.00 0.00 76 1020.3
20260508083003 56 0 0.0 0.0 0.00 0.00 0.00 76 1020.3
20260508082503 56 0 0.0 0.0 0.00 0.00 0.00 75 1020.3
20260508082003 56 279 0.0 1.7 0.00 0.00 0.00 76 1020.3
20260508081503 56 0 0.0 0.0 0.00 0.00 0.00 75 1020.4
20260508080503 57 280 0.0 0.9 0.00 0.00 0.00 74 1020.4
20260508080003 57 0 0.0 0.0 0.00 0.00 0.00 74 1020.6
20260508075503 57 0 0.0 0.0 0.00 0.00 0.00 73 1020.6
20260508075002 58 0 0.0 0.0 0.00 0.00 0.00 71 1020.5
20260508074003 58 303 0.0 0.9 0.00 0.00 0.00 71 1020.5
20260508073503 58 0 0.0 0.0 0.00 0.00 0.00 69 1020.5
20260508073003 59 0 0.0 0.0 0.00 0.00 0.00 69 1020.6
20260508072503 59 0 0.0 0.0 0.00 0.00 0.00 71 1020.5
20260508072003 59 0 0.0 0.0 0.00 0.00 0.00 69 1020.5
20260508071503 60 0 0.0 0.0 0.00 0.00 0.00 69 1020.4
20260508070503 60 304 0.9 1.7 0.00 0.00 0.00 66 1020.3
20260508070004 60 305 0.9 0.9 0.00 0.00 0.00 68 1020.4
20260508065503 60 305 0.9 2.6 0.00 0.00 0.00 68 1020.4
20260508064002 61 0 0.0 0.0 0.00 0.00 0.00 68 1020.4
20260508063503 61 297 0.0 3.5 0.00 0.00 0.00 67 1020.5
20260508063003 61 0 0.0 0.0 0.00 0.00 0.00 66 1020.4
20260508062503 61 0 0.0 0.0 0.00 0.00 0.00 65 1020.5
20260508062004 62 0 0.0 0.0 0.00 0.00 0.00 67 1020.5
20260508061503 62 294 0.0 1.7 0.00 0.00 0.00 65 1020.5
20260508061003 62 0 0.0 0.0 0.00 0.00 0.00 66 1020.5
20260508060502 62 0 0.0 0.0 0.00 0.00 0.00 65 1020.4
20260508060005 62 0 0.0 0.0 0.00 0.00 0.00 65 1020.5
20260508055503 62 290 0.0 1.7 0.00 0.00 0.00 65 1020.3
20260508055003 62 0 0.0 0.0 0.00 0.00 0.00 65 1020.3
20260508054503 62 284 0.0 1.7 0.00 0.00 0.00 64 1020.3
20260508054003 62 283 0.0 1.7 0.00 0.00 0.00 64 1020.4
20260508053004 62 280 0.9 3.5 0.00 0.00 0.00 64 1020.4
20260508052003 62 274 1.7 3.5 0.00 0.00 0.00 64 1020.4
20260508051503 62 283 0.9 5.2 0.00 0.00 0.00 64 1020.5
20260508051003 62 244 0.9 6.1 0.00 0.00 0.00 64 1020.5
20260508050503 62 0 0.9 0.0 0.00 0.00 0.00 64 1020.5
20260508050003 62 272 1.7 3.5 0.00 0.00 0.00 64 1020.5
20260508045504 62 275 1.7 3.5 0.00 0.00 0.00 65 1020.5
20260508044503 62 239 1.7 2.6 0.00 0.00 0.00 64 1020.4
20260508043503 62 229 1.7 3.5 0.00 0.00 0.00 64 1020.3
20260508043003 62 241 1.7 2.6 0.00 0.00 0.00 64 1020.3
20260508042503 63 244 2.6 2.6 0.00 0.00 0.00 64 1020.2
20260508042003 63 244 3.5 2.6 0.00 0.00 0.00 64 1020.2
20260508041003 63 239 2.6 4.3 0.00 0.00 0.00 63 1020.1
20260508040503 63 250 2.6 3.5 0.00 0.00 0.00 63 1020.1
20260508040004 63 252 2.6 3.5 0.00 0.00 0.00 63 1020.0
20260508035503 63 250 2.6 4.3 0.00 0.00 0.00 62 1020.0
20260508034503 64 254 3.5 3.5 0.00 0.00 0.00 61 1019.9
20260508034004 64 252 3.5 4.3 0.00 0.00 0.00 61 1019.9
20260508032503 65 270 4.3 6.1 0.00 0.00 0.00 60 1019.6
20260508032003 65 267 3.5 6.1 0.00 0.00 0.00 60 1019.6
20260508031503 65 274 2.6 5.2 0.00 0.00 0.00 59 1019.6
20260508031004 65 276 3.5 3.5 0.00 0.00 0.00 59 1019.6
20260508030503 66 268 4.3 5.2 0.00 0.00 0.00 59 1019.5
20260508030004 66 265 3.5 6.1 0.00 0.00 0.00 58 1019.5
20260508025503 66 270 3.5 5.2 0.00 0.00 0.00 58 1019.5
20260508025003 66 272 1.7 6.1 0.00 0.00 0.00 57 1019.4
20260508024003 67 284 1.7 1.7 0.00 0.00 0.00 57 1019.2
20260508023502 67 282 1.7 2.6 0.00 0.00 0.00 57 1019.3
20260508023003 68 283 1.7 5.2 0.00 0.00 0.00 57 1019.3
20260508021504 69 270 3.5 6.1 0.00 0.00 0.00 55 1019.3
20260508021003 69 279 3.5 6.1 0.00 0.00 0.00 54 1019.3
20260508020503 70 293 4.3 7.0 0.00 0.00 0.00 53 1019.3
20260508015503 70 273 6.1 8.7 0.00 0.00 0.00 52 1019.0
20260508015003 70 298 5.2 7.0 0.00 0.00 0.00 53 1018.9
20260508014503 71 303 5.2 9.6 0.00 0.00 0.00 53 1019.0
20260508014004 71 308 5.2 8.7 0.00 0.00 0.00 52 1018.9